Location: Biltmore Gardens
(41.6070°N, 83.4666°W)
Time: 05:25:35
(UTC+00:00)

A-11 Canister half - Pass Details

Date: 24 April 2021
Orbit: 1526 x 1683 km, 47.3° (Epoch: 11 May)

Event Time Altitude Azimuth Distance (km) Brightness Sun altitude
Rises 02:25:04 0° 297° (WNW) 4,938 13.1 -20.6°
Reaches altitude 10° 02:28:20 10° 293° (WNW) 3,949 12.2 -21.0°
Maximum altitude 02:38:01 52° 221° (SW) 2,003 9.5 -22.4°
Enters shadow 02:43:01 30° 163° (SSE) 2,656 9.7 -23.0°
